CAPE
103 77 49 42 42 18 3 0 0 0 0 0 0 0 0 0 0 0 0 0 0 0
201 73 47 122 35 18 0 0 0 0 0 0 0 0 0 0 0 0 0 0 0 0
308 138 82 100 70 30 0 0 0 0 0 0 0 0 0 0 0 0 0 0 0 0
439 231 178 121 118 60 18 14 5 6 2 0 0 0 0 0 0 0 0 0 0 0
797 340 230 185 97 72 81 27 45 42 18 11 11 16 29 20 3 0 0 0 0 0
574 350 315 253 192 300 56 46 51 45 63 36 14 17 55 33 39 11 4 5 3 1
242 222 500 481 209 598 443 141 54 53 68 78 36 15 19 12 26 28 42 25 3 0
184 469 242 307 750 303 410 351 150 107 81 34 0 4 1 1 4 6 61 37 17 2
557 511 256 238 213 461 694 413 214 97 126 20 10 2 9 0 5 31 31 15 1 0
324 289 325 260 198 288 570 481 267 143 118 136 89 7 4 2 10 19 6 7 22 26
439 398 319 317 313 282 789 640 195 140 188 143 262 32 34 38 52 46 34 44 97 83
369 469 413 279 240 700 863 559 532 127 294 99 83 57 67 89 96 87 88 131 99 105
177 225 431 176 247 389 802 329 123 118 344 225 128 123 138 133 169 169 174 158 113 78
0 13 108 210 213 475 532 204 148 161 235 209 203 146 171 197 216 254 215 154 75 94
CIN
-43 -62 -48 -43 -30 -44 -13 -0 -0 -0 -0 -0 -0 -0 -0 -0 -0 -0 -0 -0 -0 -0
-7 -38 -46 -34 -30 -13 -0 -0 -0 -0 -0 -0 -0 -0 -0 -0 -0 -0 -0 -0 -0 -0
-5 -31 -40 -43 -28 -14 -0 -0 -0 -0 -0 -0 -0 -0 -0 -0 -0 -0 -0 -0 -0 -0
-0 -0 -8 -24 -22 -1 -25 -12 -26 -18 -7 -0 -0 -0 -0 -0 -0 -0 -0 -0 -0 -0
-0 -0 -0 -8 -30 -18 -15 -5 -18 -4 -3 -14 -28 -25 -18 -37 -73 -0 -0 -0 -0 -0
-0 -1 -3 -23 -26 -5 -2 -2 -0 -0 -1 -3 -0 -6 -17 -9 -20 -45 -81 -15 -9 -10
-25 -31 -6 -5 -28 -0 -0 -0 -5 -8 -9 -0 -1 -16 -8 -13 -17 -44 -36 -60 -98 -0
-35 -24 -26 -8 -0 -13 -0 -1 -17 -6 -5 -3 -2 -26 -0 -1 -2 -0 -22 -58 -79 -91
-2 -5 -27 -31 -35 -6 -0 -0 -8 -12 -8 -17 -14 -16 -19 -0 -33 -23 -24 -27 -25 -0
-11 -17 -25 -46 -47 -25 -5 -1 -5 -28 -16 -10 -12 -42 -91 -54 -30 -32 -45 -23 -2 -0
-3 -11 -28 -20 -24 -23 -0 -0 -20 -32 -5 -8 -10 -41 -25 -15 -10 -4 -4 -4 -2 -0
-0 -3 -6 -21 -36 -0 -0 -0 -0 -40 -16 -24 -23 -23 -11 -5 -0 -0 -0 -0 -2 -0
-13 -27 -10 -41 -38 -12 -0 -0 -9 -11 -0 -0 -1 -1 -0 -0 -0 -0 -0 -2 -6 -1
-0 -91 -80 -56 -44 -5 -0 -3 -3 -0 -0 -1 -0 -0 -0 -0 -0 -0 -0 -0 -3 -3
Wind_Speed
33 nan nan nan nan nan nan nan nan nan nan nan nan nan nan nan nan nan nan nan nan nan
34 nan nan 31 nan nan nan nan nan nan nan nan nan nan nan nan nan nan nan nan nan nan
36 35 nan 35 nan nan nan nan nan nan nan nan nan nan nan nan nan nan nan nan nan nan
38 37 38 37 35 nan nan nan nan nan nan nan nan nan nan nan nan nan nan nan nan nan
40 41 40 37 nan nan nan nan nan nan nan nan nan nan nan nan nan nan nan nan nan nan
47 46 40 39 37 38 nan nan nan nan nan nan nan nan nan nan nan nan nan nan nan nan
43 42 43 42 40 38 34 34 nan nan nan nan nan nan nan nan nan nan nan nan nan nan
45 43 43 42 40 37 35 31 31 32 nan nan nan nan nan nan nan nan nan nan nan nan
48 43 42 42 40 36 32 32 32 nan 32 nan nan nan nan nan nan nan nan nan nan nan
49 45 43 41 41 35 32 33 33 31 32 32 nan nan nan nan nan nan nan nan nan nan
53 48 45 43 40 40 37 34 35 36 38 40 41 nan nan nan nan nan nan nan nan nan
60 55 54 53 48 47 42 43 43 49 54 nan nan nan nan nan nan nan nan 58 nan 58
62 59 61 60 60 59 54 52 53 51 49 52 54 58 60 62 61 63 61 63 64 nan
nan nan 48 48 46 48 49 52 55 56 55 58 61 62 66 69 64 65 67 68 nan nan
Wind_Direction
231 nan nan nan nan nan nan nan nan nan nan nan nan nan nan nan nan nan nan nan nan nan
230 nan nan 246 nan nan nan nan nan nan nan nan nan nan nan nan nan nan nan nan nan nan
233 235 nan 241 nan nan nan nan nan nan nan nan nan nan nan nan nan nan nan nan nan nan
231 236 237 239 240 nan nan nan nan nan nan nan nan nan nan nan nan nan nan nan nan nan
229 235 238 242 nan nan nan nan nan nan nan nan nan nan nan nan nan nan nan nan nan nan
229 234 240 246 250 247 nan nan nan nan nan nan nan nan nan nan nan nan nan nan nan nan
235 237 240 242 247 250 251 255 nan nan nan nan nan nan nan nan nan nan nan nan nan nan
237 238 241 246 250 252 257 262 269 271 nan nan nan nan nan nan nan nan nan nan nan nan
236 240 245 252 254 258 260 263 269 nan 275 nan nan nan nan nan nan nan nan nan nan nan
236 241 246 251 257 259 261 261 264 269 274 280 nan nan nan nan nan nan nan nan nan nan
229 236 241 245 249 252 252 259 263 268 272 270 267 nan nan nan nan nan nan nan nan nan
230 234 243 246 249 246 247 250 257 266 268 nan nan nan nan nan nan nan nan 272 nan 278
238 243 245 247 249 247 254 260 259 260 262 269 269 272 278 278 278 276 274 275 276 nan
nan nan 236 240 242 250 252 257 262 263 261 264 268 270 274 277 276 275 277 280 nan nan